Precipitable_Water
0.66 0.69 0.66 0.63 0.64 0.67 0.69 0.72 0.72 0.73 0.71 0.79 0.84 0.81 0.75 0.73 0.74 0.81 0.78 0.82 0.71 0.85 1.00 0.86 0.72 0.72 0.88 0.84 0.92 1.00 0.60 0.52 0.57 0.54 0.52 0.69 0.59 0.71 0.73 0.56 0.74 0.87 0.79 0.87 1.08
0.64 0.63 0.66 0.61 0.63 0.64 0.68 0.70 0.71 0.73 0.70 0.81 0.85 0.79 0.74 0.72 0.60 0.57 0.81 0.96 0.88 0.87 0.88 0.80 0.52 0.62 0.61 0.69 0.79 0.76 0.58 0.57 0.69 0.68 0.62 0.71 0.67 0.69 0.63 0.55 0.68 0.81 0.94 1.03 1.12
0.64 0.63 0.65 0.60 0.61 0.65 0.67 0.67 0.67 0.66 0.73 0.81 0.84 0.79 0.75 0.70 0.44 0.45 0.77 0.88 0.94 0.85 0.89 0.92 0.75 0.57 0.48 0.63 0.68 0.74 0.59 0.70 0.73 0.77 0.78 0.75 0.74 0.79 0.67 0.54 0.67 0.63 0.94 0.98 1.07
0.65 0.63 0.65 0.58 0.60 0.62 0.64 0.64 0.65 0.65 0.70 0.75 0.77 0.74 0.73 0.59 0.23 0.61 0.77 0.80 0.95 0.88 0.81 0.82 0.73 0.48 0.44 0.47 0.59 0.54 0.70 0.76 0.77 0.85 0.81 0.77 0.83 0.74 0.73 0.67 0.78 0.76 0.96 1.07 1.01
0.66 0.65 0.64 0.65 0.57 0.58 0.64 0.65 0.65 0.63 0.60 0.61 0.66 0.68 0.60 0.41 0.37 0.69 0.73 0.84 0.90 0.89 0.69 0.74 0.64 0.49 0.41 0.52 0.55 0.49 0.68 0.79 0.84 0.87 0.86 0.85 0.78 0.79 0.73 0.79 0.81 0.82 0.97 1.06 1.05
0.64 0.68 0.65 0.65 0.60 0.59 0.59 0.61 0.61 0.60 0.59 0.60 0.64 0.66 0.49 0.31 0.55 0.64 0.70 0.73 0.78 0.76 0.69 0.77 0.67 0.58 0.49 0.51 0.51 0.57 0.58 0.68 0.86 0.83 0.85 0.78 0.78 0.82 0.77 0.83 0.76 0.79 0.93 1.04 1.06
0.56 0.65 0.68 0.65 0.64 0.64 0.64 0.58 0.63 0.62 0.63 0.61 0.59 0.53 0.41 0.36 0.56 0.60 0.64 0.69 0.75 0.72 0.70 0.76 0.83 0.58 0.54 0.48 0.64 0.60 0.51 0.66 0.73 0.81 0.79 0.84 0.71 0.70 0.82 0.86 0.75 0.76 0.90 1.02 1.04
0.58 0.58 0.68 0.69 0.65 0.66 0.68 0.69 0.58 0.60 0.62 0.63 0.62 0.48 0.29 0.55 0.62 0.56 0.61 0.62 0.71 0.80 0.75 0.83 0.93 0.65 0.54 0.59 0.54 0.52 0.49 0.44 0.66 0.73 0.77 0.73 0.56 0.76 0.86 0.84 0.79 0.79 0.82 0.84 0.89
0.66 0.53 0.63 0.69 0.67 0.69 0.70 0.68 0.63 0.58 0.59 0.60 0.48 0.40 0.28 0.58 0.50 0.55 0.58 0.51 0.62 0.74 0.77 0.83 0.86 0.62 0.55 0.41 0.38 0.47 0.33 0.36 0.49 0.66 0.66 0.65 0.56 0.72 0.87 0.85 0.81 0.81 0.82 0.80 0.80
0.67 0.58 0.57 0.69 0.69 0.69 0.71 0.70 0.68 0.62 0.61 0.60 0.52 0.34 0.41 0.38 0.47 0.52 0.62 0.61 0.60 0.64 0.63 0.68 0.69 0.51 0.44 0.34 0.19 0.28 0.33 0.35 0.37 0.51 0.56 0.56 0.56 0.69 0.81 0.84 0.79 0.79 0.76 0.74 0.73
0.67 0.65 0.52 0.67 0.69 0.70 0.65 0.63 0.51 0.46 0.49 0.35 0.35 0.34 0.40 0.47 0.50 0.50 0.61 0.60 0.59 0.62 0.44 0.57 0.50 0.38 0.32 0.35 0.36 0.33 0.32 0.33 0.43 0.53 0.50 0.51 0.56 0.64 0.76 0.83 0.76 0.75 0.74 0.71 0.72
0.67 0.66 0.51 0.66 0.67 0.71 0.59 0.48 0.49 0.52 0.36 0.46 0.41 0.38 0.44 0.45 0.33 0.49 0.64 0.46 0.48 0.40 0.50 0.50 0.43 0.52 0.48 0.41 0.34 0.33 0.29 0.29 0.42 0.52 0.51 0.52 0.55 0.66 0.72 0.75 0.76 0.72 0.71 0.71 0.71
0.65 0.63 0.51 0.66 0.66 0.62 0.54 0.52 0.66 0.67 0.41 0.43 0.44 0.38 0.39 0.41 0.34 0.43 0.55 0.51 0.43 0.38 0.43 0.43 0.50 0.57 0.46 0.42 0.32 0.32 0.27 0.30 0.36 0.48 0.52 0.51 0.49 0.56 0.66 0.72 0.72 0.70 0.67 0.66 0.66
0.62 0.59 0.55 0.66 0.58 0.57 0.53 0.65 0.69 0.66 0.35 0.37 0.40 0.39 0.43 0.44 0.32 0.54 0.58 0.49 0.41 0.38 0.44 0.47 0.58 0.53 0.45 0.41 0.40 0.28 0.38 0.37 0.38 0.37 0.31 0.50 0.32 0.46 0.51 0.55 0.60 0.63 0.62 0.61 0.59
0.59 0.57 0.62 0.65 0.54 0.48 0.58 0.67 0.71 0.61 0.20 0.44 0.43 0.61 0.47 0.39 0.38 0.41 0.58 0.47 0.35 0.42 0.44 0.43 0.48 0.50 0.46 0.44 0.47 0.36 0.43 0.38 0.39 0.39 0.37 0.38 0.36 0.36 0.44 0.45 0.48 0.54 0.58 0.58 0.59
0.57 0.55 0.65 0.62 0.62 0.60 0.67 0.68 0.63 0.30 0.21 0.38 0.49 0.42 0.36 0.37 0.38 0.42 0.46 0.58 0.54 0.44 0.46 0.50 0.62 0.58 0.51 0.54 0.50 0.48 0.44 0.41 0.41 0.38 0.28 0.34 0.33 0.28 0.35 0.37 0.40 0.44 0.51 0.57 0.60
0.55 0.58 0.63 0.64 0.51 0.67 0.67 0.54 0.26 0.21 0.41 0.35 0.40 0.44 0.40 0.34 0.36 0.40 0.36 0.33 0.31 0.29 0.31 0.46 0.50 0.59 0.57 0.47 0.50 0.43 0.36 0.25 0.24 0.24 0.22 0.34 0.29 0.26 0.35 0.40 0.41 0.41 0.42 0.47 0.55
0.54 0.63 0.63 0.64 0.70 0.65 0.56 0.32 0.17 0.30 0.34 0.46 0.44 0.44 0.37 0.40 0.39 0.40 0.35 0.33 0.48 0.47 0.39 0.36 0.33 0.50 0.54 0.46 0.40 0.39 0.35 0.24 0.15 0.17 0.20 0.28 0.19 0.23 0.33 0.37 0.41 0.43 0.44 0.45 0.51
0.57 0.59 0.59 0.64 0.70 0.64 0.39 0.19 0.21 0.29 0.39 0.40 0.41 0.36 0.36 0.39 0.39 0.40 0.38 0.38 0.49 0.53 0.38 0.36 0.35 0.55 0.54 0.53 0.46 0.39 0.32 0.38 0.25 0.25 0.19 0.20 0.23 0.30 0.33 0.34 0.36 0.38 0.41 0.42 0.46
0.49 0.50 0.54 0.70 0.71 0.55 0.31 0.22 0.28 0.38 0.43 0.43 0.32 0.38 0.33 0.36 0.35 0.37 0.37 0.44 0.44 0.57 0.53 0.42 0.32 0.47 0.50 0.52 0.49 0.43 0.44 0.30 0.28 0.16 0.13 0.15 0.19 0.19 0.26 0.29 0.33 0.34 0.38 0.41 0.48
0.49 0.39 0.58 0.74 0.67 0.42 0.24 0.26 0.33 0.43 0.44 0.39 0.37 0.36 0.37 0.38 0.38 0.33 0.35 0.44 0.47 0.47 0.49 0.44 0.37 0.38 0.47 0.40 0.36 0.37 0.34 0.35 0.33 0.26 0.16 0.12 0.16 0.30 0.29 0.30 0.29 0.32 0.39 0.44 0.49
0.42 0.29 0.63 0.71 0.36 0.35 0.28 0.32 0.40 0.40 0.47 0.44 0.44 0.40 0.38 0.38 0.34 0.32 0.33 0.38 0.51 0.49 0.40 0.45 0.38 0.31 0.35 0.46 0.49 0.45 0.36 0.34 0.24 0.21 0.24 0.21 0.19 0.33 0.34 0.33 0.35 0.35 0.40 0.48 0.54
0.34 0.38 0.58 0.61 0.26 0.29 0.36 0.36 0.40 0.38 0.40 0.40 0.39 0.40 0.41 0.37 0.33 0.37 0.38 0.47 0.51 0.48 0.43 0.44 0.34 0.25 0.29 0.36 0.43 0.36 0.39 0.39 0.36 0.32 0.23 0.22 0.22 0.34 0.37 0.38 0.41 0.42 0.43 0.50 0.55
0.34 0.28 0.38 0.44 0.43 0.35 0.33 0.34 0.34 0.44 0.40 0.42 0.40 0.41 0.36 0.35 0.39 0.35 0.37 0.44 0.48 0.48 0.51 0.48 0.36 0.29 0.22 0.25 0.33 0.31 0.34 0.38 0.36 0.26 0.26 0.23 0.28 0.34 0.38 0.39 0.41 0.44 0.48 0.51 0.55
0.32 0.26 0.34 0.26 0.31 0.34 0.37 0.37 0.34 0.34 0.41 0.43 0.37 0.37 0.35 0.30 0.31 0.32 0.40 0.44 0.48 0.50 0.47 0.43 0.32 0.37 0.38 0.38 0.36 0.34 0.32 0.36 0.33 0.34 0.29 0.32 0.31 0.37 0.42 0.44 0.45 0.47 0.49 0.52 0.53
0.25 0.24 0.28 0.23 0.34 0.34 0.34 0.35 0.36 0.37 0.38 0.37 0.36 0.39 0.37 0.31 0.32 0.30 0.37 0.38 0.38 0.46 0.44 0.46 0.34 0.37 0.37 0.42 0.39 0.34 0.36 0.39 0.37 0.38 0.38 0.39 0.34 0.47 0.50 0.50 0.49 0.50 0.52 0.52 0.55
0.32 0.33 0.27 0.26 0.27 0.30 0.30 0.35 0.38 0.43 0.45 0.45 0.44 0.40 0.37 0.39 0.43 0.44 0.44 0.43 0.42 0.38 0.37 0.36 0.33 0.31 0.26 0.33 0.33 0.27 0.30 0.31 0.36 0.41 0.40 0.33 0.38 0.49 0.48 0.50 0.51 0.53 0.52 0.50 0.54
Wind_Speed
37 36 37 38 36 35 34 33 31 27 23 20 21 22 26 27 28 31 32 33 34 30 29 30 32 31 30 31 38 31 32 35 35 31 29 26 24 23 23 22 23 22 20 21 24
38 37 38 38 37 35 35 33 30 26 21 16 17 19 23 25 26 29 32 34 33 33 29 29 32 31 30 31 35 35 37 37 34 30 29 27 24 24 22 22 21 21 20 21 23
38 37 38 38 36 36 34 31 30 25 16 12 13 16 18 23 25 26 27 38 34 34 32 28 32 31 31 29 33 35 39 34 33 32 29 28 25 25 23 22 22 21 23 24 25
38 37 38 37 35 36 33 31 28 23 17 11 10 12 14 18 22 23 22 33 35 34 33 30 31 32 30 30 31 33 36 36 30 32 32 29 29 26 26 26 23 24 26 25 26
38 37 37 36 34 33 31 29 26 22 19 10 8 8 10 14 22 22 22 27 33 34 34 32 30 31 29 29 27 31 31 35 33 32 32 32 29 29 29 26 23 22 26 26 26
38 38 37 35 33 31 29 28 25 21 19 12 6 5 7 11 16 22 22 27 28 33 34 33 30 30 29 27 27 28 31 34 30 32 32 34 33 29 31 26 24 23 26 26 26
38 37 36 34 31 29 27 26 23 20 17 13 7 4 5 8 12 19 24 27 26 31 33 35 27 30 27 24 27 22 25 29 32 28 29 31 36 37 37 28 27 25 26 26 26
38 37 35 33 30 28 25 23 21 19 16 13 9 6 5 6 8 16 23 27 27 27 34 34 28 29 26 24 25 21 23 26 29 29 25 29 32 37 38 32 30 29 27 27 26
37 36 35 33 29 27 25 21 20 18 16 14 11 6 4 4 5 11 21 27 26 27 32 34 29 28 26 26 22 23 24 28 29 30 25 27 27 35 35 35 33 31 30 29 28
37 35 34 32 29 26 24 20 18 18 17 15 10 5 3 3 5 10 18 24 27 28 31 32 27 28 27 28 30 26 18 26 25 29 27 28 27 28 32 35 34 33 31 30 29
37 34 33 31 28 25 20 18 18 19 17 15 10 4 3 4 4 9 17 22 25 30 32 33 26 34 34 27 20 21 19 19 24 26 29 27 27 25 31 35 35 35 33 33 32
37 34 32 30 26 23 18 16 15 17 18 17 12 6 4 3 3 11 16 19 27 31 26 28 24 27 27 27 22 19 19 18 17 23 25 26 24 28 28 33 33 34 33 33 33
38 34 31 28 23 21 17 15 15 15 17 18 15 8 2 1 5 12 15 19 25 31 24 26 20 25 26 25 21 18 18 17 16 16 19 22 25 26 31 37 32 33 31 31 34
37 34 29 25 21 19 16 14 15 13 16 17 15 11 4 4 7 10 14 17 23 29 23 22 21 24 26 23 20 17 18 16 15 14 18 20 22 30 32 34 33 35 33 31 30
37 33 27 23 19 18 15 12 14 13 14 14 15 12 7 3 9 9 13 17 28 22 24 21 26 23 25 23 19 17 17 15 13 11 12 16 19 22 22 32 36 36 33 32 31
36 31 25 22 19 16 14 11 12 14 13 11 14 13 9 7 7 10 13 21 23 19 21 19 23 16 20 21 17 17 15 12 11 10 10 16 18 19 24 25 26 29 33 34 33
34 28 23 21 19 15 12 11 11 13 11 12 11 11 13 9 13 15 19 20 16 16 19 21 20 18 19 19 16 15 15 11 10 10 10 9 15 20 15 21 23 26 27 32 33
31 25 23 22 19 15 12 12 10 8 10 10 11 11 10 13 15 20 18 14 11 11 20 19 18 18 18 19 19 18 17 13 13 12 10 8 11 13 15 20 24 24 26 27 30
26 24 23 22 18 16 13 9 4 4 7 8 7 9 10 11 13 13 13 12 9 17 13 16 15 17 16 17 18 19 18 15 9 8 7 11 11 14 14 18 21 23 25 28 29
23 23 24 22 19 17 13 8 5 3 4 5 7 6 7 9 10 9 8 10 10 10 9 13 15 14 15 16 16 16 19 15 11 10 11 10 11 11 12 12 18 22 26 25 26
23 23 23 22 20 18 13 9 4 3 1 2 5 6 6 7 7 7 6 8 13 11 8 12 12 13 14 16 17 17 17 15 14 13 11 10 11 10 10 14 15 18 21 23 24
21 22 23 21 20 18 14 10 5 2 1 1 2 3 4 4 3 3 4 6 13 15 10 10 10 11 15 14 17 18 19 18 15 14 13 12 14 10 13 12 12 14 17 21 23
21 21 22 21 20 18 16 10 7 3 3 3 2 2 2 3 3 4 5 6 13 13 13 13 9 9 10 14 16 20 20 19 18 15 17 14 14 7 9 9 8 9 15 19 21
21 21 21 21 20 18 16 12 8 3 4 4 4 3 2 1 1 4 4 5 8 10 10 11 10 11 13 14 14 20 22 24 22 21 18 22 19 17 15 13 13 12 14 17 21
21 21 21 21 20 19 16 13 9 4 4 3 4 4 5 3 2 2 4 5 6 8 8 9 9 9 11 11 12 15 21 25 30 30 23 18 24 23 21 20 18 17 16 18 18
20 20 21 21 20 18 17 13 9 6 4 5 4 5 5 5 4 6 6 6 7 7 7 8 7 7 10 11 12 13 16 20 26 27 27 28 27 19 18 17 17 18 18 20 20
20 20 20 22 21 19 17 13 9 7 4 5 7 6 5 5 6 6 7 6 7 9 8 8 8 7 9 9 10 13 15 17 17 21 24 25 25 17 18 19 19 18 17 17 19
Wind_Direction
351 350 348 346 344 340 336 332 327 318 304 276 258 250 240 235 231 225 223 220 215 214 215 213 210 210 210 210 204 209 210 210 209 207 207 211 210 215 216 215 212 216 218 214 202
351 349 348 347 346 344 340 336 333 326 308 280 260 251 240 233 229 226 224 218 214 213 212 210 208 207 210 210 211 213 213 214 210 208 206 208 209 216 214 218 212 215 214 204 201
351 349 349 349 349 348 346 347 342 337 322 291 265 252 244 231 227 222 225 214 213 209 209 208 207 206 209 209 210 211 211 211 211 209 207 209 211 213 213 209 209 222 218 205 204
351 350 350 350 350 351 350 350 349 351 339 304 273 256 241 230 222 220 220 210 209 207 206 205 204 204 209 210 211 212 216 213 211 211 209 210 214 217 212 214 225 226 217 212 207
351 350 349 350 350 351 353 356 357 356 355 330 286 257 241 231 222 218 212 203 206 206 204 204 203 203 206 209 209 213 213 214 214 210 211 214 217 217 220 219 223 225 213 214 211
351 351 350 349 350 352 354 357 359 1 3 359 330 258 244 232 220 214 210 203 202 204 205 201 204 201 207 207 207 212 214 209 212 217 214 216 221 220 218 219 226 225 218 216 215
352 351 350 349 349 351 353 356 359 3 4 6 1 307 250 234 224 216 209 204 203 203 204 201 202 201 203 203 206 208 205 208 211 213 215 215 224 221 223 225 228 224 220 217 216
352 351 351 351 349 349 350 353 355 357 358 358 352 338 261 243 229 212 206 203 205 203 201 198 198 200 201 203 201 206 206 206 206 202 213 209 223 220 224 224 228 226 221 219 218
350 351 351 352 349 349 350 348 352 354 352 348 341 330 284 243 223 214 203 204 204 200 192 193 197 199 200 195 198 209 209 207 207 207 210 214 219 221 220 221 227 227 223 222 221
350 350 351 352 350 350 352 353 357 356 353 349 340 334 305 253 250 214 200 193 195 195 186 191 195 197 199 197 202 203 207 211 208 210 213 215 223 219 217 218 227 227 223 222 222
350 349 350 350 350 351 353 358 1 2 360 357 350 325 314 282 256 197 183 185 189 189 186 191 194 198 197 198 204 200 207 205 214 213 213 218 219 219 211 217 230 230 225 225 226
351 350 349 349 350 353 356 356 359 5 9 6 353 319 295 287 226 174 177 184 187 180 185 187 193 195 192 199 199 196 202 208 214 212 215 220 218 221 215 216 221 226 228 226 226
351 350 349 350 351 357 1 1 5 7 12 12 14 8 321 272 168 166 176 173 181 178 187 186 192 185 188 194 194 201 198 202 205 210 223 214 222 220 224 222 224 225 226 228 228
352 350 351 352 355 357 1 5 9 10 15 15 18 20 39 139 151 165 169 172 174 176 187 185 187 184 187 191 195 196 200 198 200 207 219 218 231 225 226 226 226 227 224 227 229
352 351 353 355 357 358 2 7 12 17 19 16 21 21 47 131 151 160 170 171 167 180 183 179 179 186 189 188 193 197 195 195 205 213 221 227 229 230 223 228 229 229 228 227 228
352 352 357 357 357 357 7 9 11 19 18 23 28 38 60 103 136 154 164 160 168 171 182 183 181 179 182 185 188 184 185 192 207 216 235 224 226 235 227 229 233 233 231 229 229
353 356 359 0 358 359 3 4 8 26 17 25 36 51 64 102 122 134 143 150 157 168 181 175 183 185 182 181 191 189 185 197 209 221 229 234 228 237 232 231 233 234 234 231 229
354 0 1 360 2 1 357 4 22 18 29 40 48 73 70 110 119 130 139 145 158 185 172 181 174 182 190 191 193 193 196 199 206 218 232 243 238 241 243 246 240 237 235 233 228
358 0 0 359 360 358 354 5 360 4 32 46 54 63 76 99 133 149 158 160 162 155 167 177 181 184 186 194 196 199 205 206 198 227 229 233 258 265 264 253 248 243 235 231 229
358 359 359 359 358 358 356 351 348 358 34 44 57 77 93 113 128 147 161 170 169 162 160 168 168 188 190 194 200 202 203 211 223 219 235 251 255 253 276 271 257 245 237 230 227
356 357 357 358 358 359 356 339 335 293 349 73 60 69 84 132 147 157 168 181 186 176 164 173 183 193 194 207 207 208 211 216 217 221 231 251 255 243 271 279 272 248 232 227 221
355 356 355 357 356 357 355 342 334 300 252 186 107 86 75 108 129 154 165 188 183 182 181 188 185 193 208 221 221 221 218 216 220 232 241 243 253 255 284 283 276 241 228 221 221
353 352 354 354 355 354 351 344 331 295 243 211 203 116 85 95 104 149 158 159 181 187 191 196 193 195 218 227 228 224 222 224 228 237 238 240 252 242 280 282 282 247 227 221 222
353 353 352 354 353 354 353 347 334 295 254 234 230 214 166 121 56 157 168 173 176 190 199 201 212 217 223 232 228 230 230 231 232 239 240 246 254 255 269 279 268 258 239 229 229
355 352 352 351 352 352 349 345 331 317 256 241 233 230 223 207 206 177 177 177 183 193 204 210 222 230 241 240 234 239 233 231 231 236 239 251 247 253 261 265 263 255 244 235 234
353 354 353 351 349 349 350 348 336 310 264 242 226 248 232 220 228 220 202 212 210 214 214 229 231 235 243 236 238 243 239 235 234 237 245 251 261 260 261 255 256 254 243 236 237
354 354 355 353 352 351 353 347 339 314 256 226 240 234 230 230 240 240 224 228 229 220 227 233 228 237 247 251 256 259 241 233 239 238 241 244 252 256 256 255 254 240 235 235 235